Tracking 23645 objects as of 21-Sep-2021
HD Live streaming from Space Station
objects crossing your sky now

STARLINK-1193

Track STARLINK-1193 now!
10-day predictions
STARLINK-1193 is classified as:


NORAD ID: 45100
Int'l Code: 2020-006BJ
Perigee: 553.5 km
Apogee: 555.2 km
Inclination: 53.1 °
Period: 95.6 minutes
Semi major axis: 6925 km
RCS: Unknown
Launch date: January 29, 2020
Source: United States (US)
Launch site: AIR FORCE EASTERN TEST RANGE (AFETR)
aabbcc
Your satellite tracking list
Your tracking list is empty




NASA's NSSDC Master Catalog

Two Line Element Set (TLE):
1 45100U 20006BJ  21264.56696981  .00000921  00000-0  80758-4 0  9997
2 45100  53.0550   4.5241 0001205  99.6250 260.4875 15.06391580 91320
Source of the keplerian elements: AFSPC